This is the latest recevied weather packets stored in our database for station/object AJ7DN. If no packets are shown the sender has not sent any weather packets the latest 10 day(s).
| Time | Temp. | Humidity | Pressure | Rain* | Wind** | Luminosity | Snow |
|---|---|---|---|---|---|---|---|
| 1777861585 | 29.44° C | 31% | 1010.6 hPa | 0 mm | - | 14 W/m² | - |
| 1777861281 | 29.44° C | 31% | 1010.6 hPa | 0 mm | - | 16 W/m² | - |
| 1777860980 | 30° C | 30% | 1010.6 hPa | 0 mm | - | 16 W/m² | - |
| 1777860676 | 30.56° C | 30% | 1010.7 hPa | 0 mm | - | 19 W/m² | - |
| 1777860373 | 30.56° C | 28% | 1010.7 hPa | 0 mm | - | 19 W/m² | - |
| 1777860069 | 30.56° C | 26% | 1010.8 hPa | 0 mm | - | 21 W/m² | - |
| 1777859766 | 30.56° C | 26% | 1010.9 hPa | 0 mm | - | 23 W/m² | - |
| 1777859461 | 30.56° C | 27% | 1010.8 hPa | 0 mm | - | 24 W/m² | - |
| 1777859158 | 31.11° C | 25% | 1010.8 hPa | 0 mm | - | 27 W/m² | - |
| 1777858855 | 31.11° C | 26% | 1010.8 hPa | 0 mm | - | 31 W/m² | - |
| 1777858553 | 31.67° C | 25% | 1010.5 hPa | 0 mm | - | 34 W/m² | - |
| 1777858249 | 31.67° C | 26% | 1010.7 hPa | 0 mm | - | 34 W/m² | - |
| 1777857947 | 32.22° C | 24% | 1010.8 hPa | 0 mm | - | 37 W/m² | - |
| 1777857645 | 32.22° C | 25% | 1010.8 hPa | 0 mm | - | 37 W/m² | - |
| 1777857341 | 32.78° C | 25% | 1010.7 hPa | 0 mm | - | 39 W/m² | - |
| 1777857037 | 32.78° C | 24% | 1010.9 hPa | 0 mm | - | 39 W/m² | - |
| 1777856733 | 32.78° C | 22% | 1010.9 hPa | 0 mm | - | 47 W/m² | - |
| 1777856429 | 33.33° C | 23% | 1011 hPa | 0 mm | - | 45 W/m² | - |
| 1777856126 | 33.89° C | 23% | 1011 hPa | 0 mm | - | 97 W/m² | - |
| 1777855824 | 33.89° C | 23% | 1011 hPa | 0 mm | - | 236 W/m² | - |
| 1777855522 | 33.89° C | 22% | 1011.1 hPa | 0 mm | - | 240 W/m² | - |
| 1777855218 | 34.44° C | 23% | 1011.1 hPa | 0 mm | - | 263 W/m² | - |
| 1777854914 | 34.44° C | 24% | 1011.1 hPa | 0 mm | - | 256 W/m² | - |
| 1777854611 | 34.44° C | 22% | 1011 hPa | 0 mm | - | 226 W/m² | - |
| 1777854308 | 34.44° C | 23% | 1011.1 hPa | 0 mm | - | 270 W/m² | - |
* Rain latest hour (hover to see other rain measurements)
** Current wind speed in m/s (hover to see current wind gust speed)